Location: Dallas
(32.7830°N, 96.8000°W)
Time: 14:06:45
(UTC-06:00)

Tiangong 1 - Visible Passes

Search period start: 12 December 2017 00:00
Search period end: 22 December 2017 00:00
Orbit: 276 x 303 km, 42.8° (Epoch: 12 December)

Date Brightness Start Highest point End Pass type
(mag) Time Alt. Az. Time Alt. Az. Time Alt. Az.
17 Dec 4.1 06:02:34 10° SSE 06:03:01 10° SE 06:03:27 10° SE visible
18 Dec 2.9 06:04:44 10° SSW 06:06:49 23° SE 06:08:55 10° E visible
19 Dec 0.9 06:09:32 29° SW 06:10:35 60° SSE 06:13:04 10° ENE visible
20 Dec 0.6 06:14:03 48° NW 06:14:19 51° NNW 06:16:48 10° NE visible
21 Dec 1.8 06:18:09 25° NNW 06:18:09 25° NNW 06:20:13 10° NE visible
